Skip Page Navigation
NASA JPL Caltech
NASA Logo - Jet Propulsion Laboratory + View the NASA Portal
+ Center for Near-Earth Object Studies
JPL Home Earth Solar System Stars & Galaxies Technology
JPL Solar System Dynamics
BODIES ORBITS EPHEMERIDES TOOLS PHYSICAL DATA DISCOVERY FAQ SITE MAP
JPL Small-Body Database Browser
Search: [ help ]  
15721 (1990 OV)
Classification: Main-belt Asteroid          SPK-ID: 2015721
Ephemeris | Orbit Diagram | Orbital Elements | Mission Design | Physical Parameters | Discovery Circumstances | Close-Approach Data ]

[ hide orbit diagram ]

For accurate long-term ephemerides, please instead use our Horizons system.This orbit viewer was implemented using two-body methods, and hence should not be used for determining accurate long-term trajectories (over several years or decades) or planetary encounter circumstances.


[ revert to old Java-based viewer ]

Orbital Elements at Epoch 2459000.5 (2020-May-31.0) TDB
Reference: JPL 30 (heliocentric ecliptic J2000)
 Element Value Uncertainty (1-sigma)   Units 
e .1296098025852419 2.8694e-08  
a 2.266502750263776 6.8773e-09 au
q 1.97274177624318 6.6602e-08 au
i 6.312558617707561 3.7491e-06 deg
node 208.3650388865638 2.8246e-05 deg
peri 87.1013481619062 3.1874e-05 deg
M 277.5777647878384 1.4871e-05 deg
tp 2459285.847905877619
(2021-Mar-12.34790588)
5.1742e-05 TDB
period 1246.329292714757
3.41
5.6726e-06
1.553e-08
d
yr
n .2888482218177247 1.3147e-09 deg/d
Q 2.560263724284372 7.7687e-09 au
  Orbit Determination Parameters
   # obs. used (total)      1863  
   data-arc span      11954 days (32.73 yr)  
   first obs. used      1987-09-24  
   last obs. used      2020-06-16  
   planetary ephem.      DE431  
   SB-pert. ephem.      SB431-N16  
   condition code      0  
   norm. resid. RMS      .48743  
   source      ORB  
   producer      Otto Matic  
   solution date      2020-Jun-23 17:52:14  

Additional Information
 Earth MOID = .96929 au 
 Jupiter MOID = 2.6147 au 
 T_jup = 3.597 
[ show covariance matrix ]

Ephemeris | Orbit Diagram | Orbital Elements | Mission Design | Physical Parameters | Discovery Circumstances | Close-Approach Data ]

Physical Parameter Table
Parameter Symbol Value Units Sigma Reference Notes
absolute magnitude H 14.5   n/a MPO452393  
diameter diameter 2.671 km 0.134 urn:nasa:pds:neowise_diameters_albedos::2.0[mainbelt] (http://adsabs.harvard.edu/abs/2011ApJ...741...68M)  
geometric albedo albedo 0.567   0.051 urn:nasa:pds:neowise_diameters_albedos::2.0[mainbelt] (http://adsabs.harvard.edu/abs/2011ApJ...741...68M)  

15721 (1990 OV)          Discovered 1990-Jul-19 by Helin, E. F. at Palomar
Reference: 20000726/Numbers.arcLast Updated: 2004-04-19

[ show close-approach data ]
Alternate Designations
 1990 OV = 1987 SX25 = 1993 KU1 
Ephemeris | Orbit Diagram | Orbital Elements | Mission Design | Physical Parameters | Discovery Circumstances | Close-Approach Data ]
ABOUT SSD CREDITS/AWARDS PRIVACY/COPYRIGHT GLOSSARY LINKS
FirstGov 2020-Jul-03 10:54 UT
(server date/time)  
NASA Home Page
Site Manager:   Ryan S. Park
Webmaster  Alan B. Chamberlin